Temp_Advection
nan nan nan nan nan nan nan nan nan nan nan nan nan nan nan nan nan nan nan nan nan nan nan nan nan nan nan nan nan nan nan nan nan nan nan nan nan nan nan nan nan nan nan nan nan nan nan nan nan
nan 0 -0 -0 -0 -0 0 -0 0 -0 -0 0 0 -0 -0 -1 -0 -0 -0 -0 -0 0 0 0 0 0 0 0 0 0 -0 0 -0 0 0 0 0 0 0 0 0 0 0 0 0 0 -0 -0 nan
nan 0 -1 -0 -0 0 -0 -0 -0 -0 -0 0 -0 -0 -0 -0 -0 -0 -0 -0 0 -0 0 -0 0 0 0 0 0 0 0 -0 -0 0 0 -0 0 0 -0 -0 0 0 0 0 0 0 0 -0 nan
nan -0 -0 -0 0 -0 -0 -0 0 -0 -0 -0 -0 -0 -0 -0 0 -0 -0 0 -0 -0 0 0 0 0 0 0 0 0 0 -0 0 0 -0 -0 0 0 0 0 0 0 0 0 0 0 -0 0 nan
nan -0 -0 0 -0 -0 -0 -0 0 0 -0 -0 0 0 -0 -0 -0 0 0 -0 -0 0 -0 0 -0 -0 -0 0 0 0 0 0 0 -0 -0 -0 0 0 0 0 0 0 0 0 0 0 -0 -0 nan
nan -0 -0 0 -0 -0 -0 -0 0 0 0 -0 -0 -0 -0 -0 0 -0 -0 -0 -0 0 0 0 0 0 0 0 0 0 -0 -0 -0 -0 -0 0 0 0 0 0 0 0 0 0 0 0 -0 0 nan
nan -0 -0 -0 -0 0 -0 -0 -0 -0 -0 -0 -0 -0 -0 -0 0 -0 -0 -0 -0 -0 0 -0 -0 0 0 0 0 0 0 -0 -0 -0 -0 0 0 0 0 0 0 0 0 0 -0 0 -0 0 nan
nan -0 0 0 0 -0 -0 0 -0 -0 -0 -0 -0 0 -0 -0 0 -0 -0 -0 -0 -0 -0 -0 -0 0 0 0 0 -0 0 -0 0 0 -0 0 0 -0 0 0 0 0 0 0 -0 -0 -0 -0 nan
nan -0 0 -0 0 -0 -0 0 -0 0 -0 -0 0 -0 -0 0 0 0 0 -0 -0 -0 -0 -1 -0 -0 0 0 0 0 0 0 0 -0 0 0 -0 -0 0 0 0 0 0 -0 -0 -0 -0 0 nan
nan -0 -0 -0 -0 -0 -0 0 -0 -0 -0 0 0 0 0 0 0 0 0 0 0 -0 -0 -0 -0 -0 -0 0 0 0 0 -0 0 0 -0 -0 0 0 0 0 0 0 0 -0 -0 -0 0 0 nan
nan -0 -0 -0 -0 -0 0 0 -0 -0 -0 0 0 0 0 0 0 0 0 0 0 -0 -0 -0 -0 -0 -0 0 0 0 0 0 -0 -0 0 0 0 0 0 0 -0 -0 0 -0 -0 0 0 1 nan
nan -0 -0 -0 -0 -0 -0 -0 -0 -0 0 0 0 -0 -0 -0 -0 0 0 0 -0 -0 0 -0 -0 0 0 -0 -0 0 0 -0 0 0 0 0 -0 -0 0 0 0 1 0 -0 0 1 1 0 nan
nan -0 -0 -0 0 -0 -0 -0 -0 -0 0 0 0 0 -0 -0 -0 0 0 0 0 -0 -0 -0 -0 -0 0 0 -0 0 0 -0 0 0 0 -0 -0 -0 0 0 0 -0 -0 1 1 1 0 0 nan
nan 0 -0 -0 0 0 -0 0 -0 -0 0 0 0 0 0 0 0 -0 -0 -0 -0 -0 -0 -0 -0 -0 0 -0 -0 -0 0 0 -0 0 0 0 -1 -1 1 0 -0 0 1 1 1 0 0 0 nan
nan -0 -0 -0 -0 0 -0 -0 -1 0 0 -0 0 0 0 0 -0 -0 0 -0 -0 -0 -0 -0 -0 -0 -0 -0 -0 -0 -0 0 0 0 0 0 -0 -1 -0 0 1 1 1 1 1 0 0 0 nan
nan -0 -0 -0 0 0 -0 0 -0 0 -0 -0 0 0 -0 0 0 0 -0 -0 -0 -0 -0 -0 -0 -0 -0 -0 -0 -0 -0 -0 0 1 0 0 -0 -1 0 1 1 0 1 1 0 -1 0 0 nan
nan -0 0 -0 -0 -0 -0 -0 -0 0 -0 -0 -0 -0 -0 -0 -0 -0 0 -0 -0 -0 -0 -0 -0 0 0 0 0 -0 -0 -0 0 1 0 -0 -1 -0 -0 1 1 0 0 0 -0 1 1 0 nan
nan 0 0 0 -0 -0 -0 -1 -0 0 0 0 -0 -0 -0 -0 -0 0 0 0 0 0 0 -0 -0 -0 -0 -0 -0 0 -0 -0 -0 0 1 0 -0 -0 0 1 0 0 -0 0 1 1 1 1 nan
nan -0 0 0 -0 -0 -0 -1 -1 0 0 -0 -0 0 -0 -0 -0 0 0 0 -0 -0 -0 -0 -0 -0 -0 -1 -1 0 1 0 -1 -1 0 0 0 -0 0 0 1 0 -0 0 1 1 1 1 nan
nan 0 0 -0 -0 -0 -1 -0 -1 0 0 0 0 0 -0 0 0 0 0 0 0 0 -0 -1 -1 -1 -1 0 -0 -0 -0 0 0 -0 -1 -0 0 -0 0 1 1 0 0 1 1 1 0 0 nan
nan -0 0 0 0 -0 -1 -1 -0 -0 0 0 0 0 -0 -0 0 0 0 0 0 0 0 -0 -1 -0 -0 0 0 -0 -1 -0 -0 0 -0 -2 -1 1 1 1 0 1 0 0 1 1 1 0 nan
nan 0 0 -0 -0 -0 0 -1 -0 -0 -0 -0 -0 -0 -0 -0 -0 -0 0 0 0 1 0 -0 -1 -1 0 1 1 0 -0 -1 -0 -0 -0 -0 -0 0 2 1 0 0 0 1 0 1 1 -0 nan
nan -0 -0 -0 -0 -0 -0 -0 0 -0 -0 0 -0 -0 -0 -0 -0 -0 -0 0 0 0 1 1 0 -1 -1 -0 0 0 0 -0 -0 -0 -0 -0 0 0 1 -0 0 0 1 -0 -0 1 0 -0 nan
nan -0 -0 -0 0 -0 0 -0 -0 0 0 -0 0 -0 -0 -0 -0 -0 0 0 0 0 0 0 0 0 -0 -0 0 0 -0 0 0 -0 -1 -0 0 0 -1 1 0 0 0 -0 0 1 0 -0 nan
nan -0 -0 -0 -0 -0 0 -0 -1 -0 -0 -0 -0 -0 -0 -0 0 0 0 0 0 0 0 0 -0 -0 -0 0 0 0 0 0 0 0 -0 -1 -0 -0 0 1 -0 1 0 0 1 0 -0 -0 nan
nan -0 0 -0 -0 -0 -0 -1 0 -0 -0 -0 -0 -0 -0 -0 -0 -0 0 0 0 0 0 0 0 0 -0 -0 -0 0 0 0 0 0 -0 -0 -0 -0 1 -0 -0 0 -0 0 0 0 0 0 nan
nan 0 -0 -0 0 -0 -0 -0 0 0 -0 -0 0 -0 -0 0 -0 -0 -0 0 0 -0 -0 0 -0 -0 -0 -0 -0 -0 -0 0 0 -0 0 -0 -0 -0 0 -0 -0 0 -0 0 -0 0 0 -0 nan
nan 0 0 0 -0 -0 -0 0 0 0 0 -0 -0 -0 -0 0 -0 -0 -0 -0 -0 0 -1 -0 -0 -0 -0 -0 -0 0 -0 -0 0 0 0 -0 -1 -0 0 -0 0 -0 -0 0 0 0 0 0 nan
nan -0 -0 -0 0 -0 -1 -0 -0 -0 -0 0 -0 -0 -0 0 0 0 0 0 -0 0 -0 -0 -0 -0 -0 -0 -0 0 0 -0 0 0 -0 -0 -0 0 0 -0 0 -0 1 0 0 0 0 0 nan
nan nan nan nan nan nan nan nan nan nan nan nan nan nan nan nan nan nan nan nan nan nan nan nan nan nan nan nan nan nan nan nan nan nan nan nan nan nan nan nan nan nan nan nan nan nan nan nan nan
Wind_Speed
2 2 3 3 5 6 7 5 2 4 4 3 4 6 12 15 8 4 3 3 1 3 8 8 11 12 9 8 9 9 10 9 8 8 9 8 7 7 6 7 10 10 7 7 7 5 5 4 4
3 4 3 4 6 8 5 5 5 6 3 1 2 2 1 6 7 6 3 8 6 1 8 8 6 9 10 10 10 10 10 12 11 8 7 8 8 8 7 8 10 8 7 9 8 4 5 3 4
7 7 5 4 6 7 3 4 7 6 6 3 1 5 4 7 5 4 6 8 6 3 7 10 8 8 8 8 11 10 11 13 13 12 12 10 10 9 9 10 9 8 10 12 6 2 3 2 3
2 3 5 5 5 5 5 6 4 6 4 6 4 5 4 4 2 3 6 8 9 9 2 6 9 10 10 11 11 13 13 13 14 14 14 13 12 11 10 10 10 9 11 13 8 5 1 2 4
2 4 5 4 3 3 6 5 2 3 3 3 5 4 3 2 5 3 3 6 6 6 4 3 5 10 11 10 13 13 15 14 13 15 17 16 15 13 12 12 11 11 11 11 10 8 5 5 5
5 4 5 7 5 5 4 3 1 1 1 2 2 3 3 2 4 2 3 1 2 3 4 4 3 4 9 14 12 13 15 15 15 17 18 17 16 15 13 13 13 13 12 12 11 10 9 8 8
5 5 1 1 6 6 4 1 2 3 3 2 3 4 3 4 1 5 6 7 7 9 9 9 10 8 7 7 13 14 14 17 17 18 19 19 17 16 15 15 15 14 13 12 13 12 11 10 10
3 3 5 2 7 4 3 0 0 4 2 4 1 1 3 3 4 6 7 9 11 14 15 16 16 15 13 8 9 13 17 15 17 20 21 21 19 18 18 17 18 16 14 14 14 14 12 11 12
1 4 3 3 3 5 3 1 1 2 5 3 4 5 3 6 9 9 10 10 9 8 8 14 17 18 18 16 13 13 15 18 18 18 21 22 20 20 20 20 22 19 14 13 13 13 12 11 11
3 2 3 3 4 3 2 1 2 3 4 5 4 3 4 5 8 10 12 12 11 11 10 13 14 14 16 16 15 13 9 16 19 19 21 22 24 21 19 22 25 24 17 15 14 13 12 10 9
2 2 6 4 3 1 0 4 2 4 4 1 3 5 7 10 12 13 14 13 14 14 17 17 16 16 15 15 15 13 9 10 16 19 21 22 23 23 23 24 27 27 25 20 17 15 13 11 9
4 3 2 4 2 1 2 4 4 8 5 2 5 8 10 10 10 9 9 8 8 9 11 12 14 18 17 16 16 15 11 11 11 11 15 19 23 24 26 27 30 30 28 22 18 13 12 12 12
4 4 3 2 1 3 5 5 7 11 9 7 6 10 10 9 6 5 5 6 7 8 10 10 10 10 15 17 15 15 14 14 14 13 13 14 20 22 27 29 33 31 31 24 18 14 13 13 13
3 3 2 1 1 3 4 7 4 4 7 4 10 9 5 4 4 4 4 5 5 6 7 9 9 8 9 14 17 18 17 13 15 17 15 15 22 23 23 24 28 33 35 33 22 20 16 13 14
3 4 3 6 1 2 7 5 8 5 5 8 9 5 3 2 2 3 4 3 3 5 7 9 9 8 5 5 10 15 18 18 17 14 16 18 19 26 25 25 26 26 29 32 32 23 21 15 14
3 3 4 6 2 3 4 5 6 7 5 12 7 5 5 3 3 1 1 4 5 5 5 7 9 10 8 7 10 13 17 20 21 19 15 17 16 26 24 24 20 21 31 34 36 30 20 17 18
6 5 7 5 1 3 5 5 4 7 12 11 6 7 5 2 3 4 5 5 3 1 5 7 9 10 11 13 14 15 17 20 23 22 19 20 20 23 22 22 19 20 26 30 28 25 22 26 23
6 7 3 5 4 5 9 14 8 12 14 9 6 7 3 3 5 5 5 4 3 4 7 11 15 20 22 26 26 24 23 23 23 24 24 21 22 21 22 21 19 23 28 28 34 31 32 31 28
3 4 5 2 2 5 5 15 13 10 4 6 7 6 3 2 4 5 4 5 7 9 14 17 24 29 32 31 29 29 25 22 24 28 25 28 27 24 24 23 23 22 27 31 33 36 35 32 36
4 4 6 2 1 4 8 18 13 3 4 4 6 4 1 1 3 5 6 7 10 14 16 24 29 31 30 29 27 27 29 28 25 24 30 27 29 30 28 26 25 24 30 33 34 36 34 38 38
6 7 2 2 5 3 9 10 6 4 5 4 3 2 0 2 5 7 9 13 16 16 24 28 33 29 28 26 26 26 25 24 25 25 25 32 31 33 29 29 25 24 28 30 32 34 38 40 39
5 3 2 2 4 2 3 4 8 8 7 6 9 5 4 5 6 9 14 19 21 23 29 31 30 29 27 24 22 21 22 22 22 21 24 25 30 30 32 28 26 27 30 32 32 39 42 42 44
2 4 2 2 0 2 6 3 5 8 10 8 8 6 8 9 14 17 17 20 21 25 28 30 26 24 25 22 22 23 22 23 22 23 24 25 29 29 33 31 29 27 31 32 35 38 40 44 45
10 5 4 3 3 3 5 4 4 9 10 8 5 2 9 19 18 18 19 20 22 25 27 28 25 23 20 20 20 21 22 25 26 24 25 27 29 31 32 35 31 31 30 32 33 40 46 44 42
6 4 2 3 2 1 5 4 8 8 6 5 5 10 18 21 20 20 22 22 22 23 25 23 22 21 19 20 20 21 23 24 26 27 28 28 29 32 33 33 34 34 32 31 30 33 37 41 42
11 3 3 4 3 1 4 6 3 12 8 9 6 17 19 21 21 22 23 23 21 24 23 22 20 20 21 20 22 22 23 23 28 29 29 32 33 33 31 30 35 33 33 33 35 34 39 41 33
5 5 2 2 1 2 5 4 6 8 7 8 15 19 19 21 23 23 22 22 22 25 24 21 18 21 22 23 22 22 22 24 28 31 31 28 33 34 34 32 32 31 34 32 34 35 39 39 38
3 4 2 3 2 5 5 9 4 12 6 8 19 21 22 25 25 23 23 23 26 28 25 21 19 21 23 21 20 21 21 24 27 26 27 24 32 31 33 30 32 29 33 33 30 29 34 39 38
3 4 2 2 2 3 5 3 4 7 3 14 19 23 24 24 24 24 24 26 27 27 22 18 19 23 23 23 24 23 24 25 25 25 24 23 28 34 32 30 33 32 34 31 29 30 34 33 29
7 8 10 4 4 4 4 5 9 4 3 19 23 24 25 22 23 24 23 25 28 23 24 19 20 24 27 26 24 23 24 26 29 21 18 24 25 33 26 30 31 33 35 29 28 29 27 30 28
Wind_Direction
337 165 188 222 236 234 233 131 32 136 150 31 25 347 29 36 16 40 118 34 355 332 160 204 197 187 199 213 213 196 193 194 197 200 201 198 191 188 186 179 177 177 185 188 176 156 133 150 162
131 155 190 255 253 224 168 116 138 80 30 353 30 318 332 74 56 78 70 18 351 277 171 177 195 191 204 205 223 212 204 203 198 203 208 206 201 197 194 191 179 189 194 174 168 167 111 134 163
139 148 232 233 254 267 71 122 105 106 68 41 99 39 1 84 82 89 50 37 66 107 180 184 217 209 209 229 219 219 211 227 195 196 220 221 217 212 209 204 200 215 206 191 187 209 114 141 192
191 217 239 247 225 47 67 105 104 136 111 61 20 111 97 73 83 104 58 51 63 48 70 213 213 214 216 225 230 223 228 236 203 205 223 228 226 221 221 218 225 224 210 203 211 209 299 243 215
200 244 235 241 114 111 71 72 87 109 90 43 350 97 100 122 113 109 59 44 53 40 59 25 226 238 243 238 227 243 223 234 228 215 222 233 234 229 229 233 221 216 206 212 225 240 279 265 237
219 276 235 215 143 135 112 86 96 92 112 352 275 303 122 166 168 252 231 291 314 337 337 331 325 276 256 245 242 236 227 233 237 222 228 230 233 230 235 225 216 215 218 229 240 253 269 261 236
275 241 344 45 137 165 130 30 332 359 271 57 350 288 91 183 217 255 265 269 275 280 281 296 291 299 302 280 252 245 237 231 238 232 236 235 236 235 240 229 219 219 224 227 245 258 263 255 236
268 269 178 135 175 123 111 245 344 295 8 331 298 207 115 142 310 294 301 292 293 287 280 276 279 281 278 271 283 259 249 242 234 238 241 238 239 237 237 233 226 229 228 233 244 253 255 246 237
282 230 163 119 167 116 135 261 114 283 283 283 263 273 310 290 305 308 308 304 300 293 296 285 277 273 273 271 267 269 259 247 242 238 242 240 241 236 235 231 234 228 223 234 243 248 246 237 229
272 254 97 56 79 111 145 286 347 296 223 262 261 263 274 294 300 300 302 300 293 287 282 288 287 280 271 264 267 263 262 265 249 243 242 243 241 241 242 235 229 236 235 235 239 244 237 223 224
3 72 127 105 92 48 94 253 201 258 240 197 302 304 297 293 296 297 297 293 290 288 285 281 275 275 276 269 257 258 260 258 264 253 249 242 241 239 231 235 229 238 241 239 235 235 223 199 194
144 96 86 132 107 307 293 315 255 237 249 281 292 298 301 299 298 302 305 311 311 320 323 314 290 267 259 266 272 259 252 256 255 268 271 253 246 244 239 239 236 235 242 227 235 225 205 191 192
101 137 126 120 277 287 298 273 284 262 246 256 283 297 296 294 299 311 312 325 324 330 340 340 323 295 262 263 270 273 260 255 262 262 259 266 256 252 250 247 242 236 233 234 219 191 193 186 188
93 128 134 180 314 297 292 298 312 200 193 232 299 292 274 261 286 311 332 331 340 348 3 8 359 329 287 263 267 269 269 261 254 251 252 260 265 259 259 250 243 227 233 235 201 191 184 177 180
116 159 155 202 272 308 311 241 226 178 198 297 302 279 221 241 295 311 326 350 30 33 34 34 29 17 348 298 282 273 269 269 265 257 254 253 258 259 260 263 251 244 260 218 198 188 170 170 177
212 236 212 140 275 148 327 114 172 178 255 302 283 215 192 236 250 256 117 112 96 75 30 19 21 14 0 321 293 282 269 268 272 267 256 251 244 263 261 260 251 241 224 221 207 206 181 177 184
208 239 218 161 149 311 230 312 107 234 263 294 260 188 187 181 157 143 142 142 124 37 349 341 332 328 321 316 308 297 285 275 268 263 256 256 263 267 268 256 236 223 236 223 243 222 201 183 188
218 229 212 252 119 260 270 268 279 292 283 260 223 184 180 161 167 167 174 218 262 313 314 315 315 315 310 308 303 295 290 281 274 266 250 252 257 254 261 253 232 230 224 234 219 204 194 187 188
292 267 255 177 50 302 273 294 300 311 231 208 196 181 178 154 181 196 218 257 281 300 305 312 315 310 305 300 295 286 278 272 274 269 261 249 253 251 255 250 240 234 229 227 226 218 193 182 188
205 238 248 142 150 301 309 296 301 182 150 173 169 156 131 233 242 252 254 273 288 294 304 298 307 309 301 296 292 285 280 266 252 265 265 256 248 248 247 243 239 235 230 234 219 213 196 189 198
214 245 269 297 312 228 299 267 162 153 160 159 178 200 66 340 301 287 286 293 291 293 297 302 305 302 297 295 293 290 286 278 263 247 253 257 252 248 234 236 236 229 231 221 221 209 195 193 199
214 134 130 306 339 294 5 288 199 159 141 145 135 129 50 20 346 315 300 301 293 293 300 302 299 296 293 292 287 283 279 268 263 263 253 254 255 241 228 229 231 228 224 227 222 212 206 201 195
103 131 93 35 60 340 181 215 131 163 165 144 131 90 47 357 326 315 310 306 300 296 298 296 296 292 293 290 285 282 274 268 267 262 256 250 252 245 231 217 225 222 223 226 225 215 208 210 206
137 143 125 136 152 233 170 229 232 169 192 139 126 66 358 337 322 314 313 310 305 301 301 299 294 288 289 294 291 286 285 272 265 258 254 249 246 242 235 221 222 224 225 223 224 222 208 211 214
211 198 211 217 200 295 145 225 258 113 84 86 46 358 332 328 324 320 317 313 308 311 310 303 299 291 291 291 289 288 288 280 271 269 269 249 244 238 224 224 214 222 220 222 221 219 214 215 212
199 262 261 250 229 69 163 239 95 100 98 79 22 341 336 334 328 321 318 316 310 313 312 307 296 296 296 294 286 289 285 282 280 277 266 254 237 235 229 222 217 220 218 210 218 215 211 208 202
161 213 30 300 117 255 227 235 203 199 146 47 357 348 339 335 332 326 324 321 316 319 315 312 301 301 299 293 289 290 284 287 284 277 270 254 227 233 229 221 217 216 213 210 215 219 215 215 213
287 114 159 187 264 252 232 233 235 158 168 348 351 347 338 336 335 330 328 329 324 319 312 309 306 304 304 302 302 293 288 285 282 278 269 242 223 224 220 220 211 216 210 216 221 214 214 215 218
167 201 218 344 235 271 298 294 119 151 95 346 341 338 336 335 333 329 329 328 324 322 320 309 304 308 310 299 299 294 292 294 288 277 265 224 228 215 224 215 211 205 196 212 211 213 216 219 221
280 249 210 230 173 229 285 267 167 149 253 350 337 329 331 332 329 328 329 329 331 334 337 325 318 312 311 308 300 293 291 300 290 272 248 229 219 206 216 209 211 205 207 210 213 214 215 218 218
Height
1487 1488 1490 1492 1490 1477 1469 1477 1477 1482 1484 1491 1490 1488 1485 1490 1493 1501 1503 1502 1503 1504 1505 1504 1506 1508 1509 1510 1511 1512 1514 1516 1518 1519 1519 1520 1521 1522 1523 1524 1524 1526 1527 1527 1528 1529 1530 1531 1532
1486 1489 1491 1487 1484 1475 1467 1476 1481 1486 1493 1493 1492 1490 1489 1496 1499 1502 1504 1503 1504 1505 1505 1506 1506 1507 1509 1510 1511 1512 1514 1516 1517 1519 1520 1521 1522 1522 1523 1524 1525 1527 1527 1528 1529 1529 1530 1532 1533
1486 1488 1489 1480 1473 1471 1471 1478 1485 1490 1493 1493 1491 1494 1495 1498 1501 1504 1504 1505 1503 1504 1505 1506 1506 1507 1509 1510 1512 1512 1514 1515 1516 1518 1519 1521 1522 1523 1524 1525 1525 1527 1527 1528 1529 1530 1531 1532 1533
1489 1490 1488 1480 1471 1481 1479 1485 1491 1490 1494 1495 1495 1494 1500 1502 1502 1504 1504 1504 1506 1505 1504 1505 1506 1507 1508 1509 1511 1512 1513 1514 1515 1517 1519 1521 1522 1523 1524 1525 1526 1526 1527 1529 1530 1531 1531 1532 1533
1489 1487 1478 1478 1479 1486 1489 1493 1493 1491 1493 1494 1497 1495 1498 1502 1503 1503 1503 1504 1503 1505 1504 1504 1505 1507 1508 1509 1509 1511 1512 1513 1515 1516 1518 1520 1521 1522 1523 1524 1525 1527 1528 1529 1530 1531 1532 1532 1533
1487 1485 1478 1478 1481 1490 1494 1495 1494 1493 1495 1495 1496 1497 1498 1501 1503 1501 1502 1503 1503 1503 1504 1504 1504 1505 1506 1507 1508 1509 1511 1513 1513 1515 1517 1518 1520 1521 1522 1523 1524 1526 1527 1528 1529 1530 1531 1532 1533
1484 1480 1478 1480 1485 1490 1493 1497 1494 1495 1495 1495 1500 1497 1499 1502 1501 1501 1501 1502 1503 1503 1503 1504 1503 1504 1505 1505 1507 1508 1509 1511 1512 1513 1515 1516 1519 1520 1521 1523 1524 1525 1526 1527 1528 1528 1530 1531 1532
1486 1481 1483 1481 1486 1491 1496 1497 1498 1498 1495 1499 1500 1496 1497 1501 1501 1501 1501 1501 1501 1502 1502 1502 1502 1503 1503 1505 1505 1506 1507 1509 1510 1512 1513 1514 1516 1518 1519 1520 1522 1523 1524 1525 1526 1527 1528 1529 1531
1487 1481 1481 1486 1487 1493 1497 1496 1497 1498 1498 1499 1499 1500 1501 1501 1500 1501 1500 1500 1500 1500 1500 1499 1500 1500 1501 1502 1503 1504 1505 1506 1508 1509 1510 1512 1513 1515 1517 1518 1519 1521 1522 1523 1524 1525 1526 1527 1529
1486 1477 1484 1488 1491 1492 1496 1497 1497 1498 1495 1495 1498 1499 1499 1500 1500 1500 1499 1498 1498 1498 1498 1497 1497 1498 1498 1499 1500 1502 1504 1503 1504 1506 1507 1508 1510 1512 1514 1515 1516 1519 1520 1520 1521 1522 1524 1525 1527
1487 1482 1488 1492 1495 1496 1496 1496 1497 1496 1492 1494 1496 1497 1498 1498 1498 1498 1497 1497 1496 1495 1494 1494 1494 1495 1496 1497 1498 1499 1501 1503 1502 1502 1503 1505 1507 1508 1510 1512 1513 1515 1515 1516 1517 1519 1521 1524 1528
1489 1491 1491 1494 1496 1497 1495 1497 1495 1494 1493 1495 1496 1496 1496 1496 1496 1496 1495 1495 1494 1492 1491 1491 1491 1491 1492 1494 1495 1497 1499 1500 1501 1501 1500 1501 1503 1504 1506 1507 1508 1511 1513 1513 1515 1515 1518 1522 1526
1487 1492 1494 1496 1497 1497 1497 1495 1495 1492 1493 1494 1495 1494 1494 1493 1494 1494 1494 1494 1493 1492 1490 1489 1488 1488 1490 1491 1493 1494 1495 1497 1498 1499 1499 1499 1498 1500 1502 1504 1503 1507 1510 1514 1514 1516 1517 1520 1524
1494 1494 1495 1497 1497 1497 1496 1493 1495 1488 1491 1493 1493 1492 1492 1492 1493 1493 1493 1493 1493 1491 1489 1488 1487 1486 1487 1488 1490 1491 1492 1493 1494 1495 1496 1497 1494 1495 1497 1499 1495 1495 1505 1508 1514 1514 1513 1519 1524
1495 1494 1495 1497 1497 1496 1497 1489 1490 1489 1491 1491 1489 1490 1491 1491 1491 1492 1491 1491 1491 1491 1489 1488 1487 1486 1486 1487 1488 1488 1489 1489 1490 1490 1491 1491 1492 1490 1492 1493 1497 1499 1496 1502 1501 1508 1508 1517 1522
1493 1493 1488 1493 1496 1495 1497 1478 1483 1488 1490 1488 1487 1488 1489 1490 1490 1490 1490 1491 1491 1491 1490 1489 1488 1487 1486 1486 1486 1486 1486 1486 1486 1486 1487 1486 1487 1485 1487 1488 1491 1495 1498 1498 1497 1498 1497 1515 1520
1489 1486 1483 1490 1496 1496 1494 1481 1483 1485 1485 1484 1484 1486 1487 1489 1488 1489 1489 1490 1490 1490 1490 1489 1487 1487 1486 1485 1484 1484 1483 1482 1482 1482 1482 1481 1481 1481 1482 1483 1487 1491 1495 1497 1496 1495 1496 1514 1518
1484 1483 1486 1484 1493 1493 1489 1483 1479 1480 1478 1479 1481 1483 1485 1487 1488 1488 1489 1488 1489 1489 1488 1487 1486 1484 1483 1482 1481 1480 1478 1477 1477 1477 1477 1476 1476 1477 1478 1479 1482 1485 1490 1492 1492 1495 1501 1502 1507
1483 1482 1483 1483 1495 1495 1483 1479 1475 1474 1476 1478 1479 1481 1484 1486 1487 1487 1487 1487 1487 1487 1486 1485 1483 1481 1478 1476 1475 1474 1473 1473 1471 1470 1471 1472 1471 1471 1472 1473 1476 1480 1481 1484 1488 1490 1495 1498 1497
1486 1487 1485 1488 1496 1496 1484 1478 1471 1473 1474 1475 1476 1479 1483 1484 1486 1487 1487 1487 1486 1485 1483 1480 1478 1475 1472 1470 1467 1466 1465 1465 1466 1464 1462 1465 1466 1465 1466 1467 1469 1472 1475 1478 1479 1484 1489 1492 1494
1486 1485 1483 1492 1492 1492 1491 1468 1472 1475 1476 1478 1479 1481 1482 1483 1484 1485 1486 1486 1484 1481 1478 1475 1471 1468 1465 1463 1460 1458 1457 1456 1456 1457 1456 1456 1458 1459 1460 1461 1463 1467 1470 1472 1476 1479 1482 1486 1491
1489 1488 1491 1494 1494 1491 1493 1484 1461 1470 1473 1475 1479 1481 1482 1484 1484 1484 1483 1481 1479 1476 1473 1468 1465 1461 1458 1456 1453 1453 1452 1452 1452 1452 1452 1451 1450 1451 1453 1456 1458 1461 1466 1468 1473 1476 1480 1483 1487
1485 1491 1494 1497 1501 1507 1490 1496 1458 1471 1473 1476 1477 1481 1483 1484 1483 1481 1479 1476 1474 1471 1467 1462 1459 1456 1453 1450 1447 1444 1444 1445 1445 1445 1445 1446 1444 1445 1447 1451 1454 1456 1460 1464 1467 1472 1477 1480 1485
1493 1493 1496 1504 1503 1498 1479 1482 1460 1465 1465 1475 1478 1480 1482 1482 1481 1478 1475 1472 1469 1465 1460 1456 1454 1450 1448 1446 1444 1442 1439 1438 1437 1438 1438 1439 1439 1439 1441 1445 1448 1451 1455 1459 1463 1467 1471 1476 1484
1493 1488 1492 1494 1498 1477 1486 1489 1462 1465 1469 1475 1479 1481 1482 1479 1476 1474 1471 1467 1463 1459 1455 1451 1448 1445 1443 1441 1439 1437 1435 1433 1432 1431 1431 1431 1433 1432 1434 1438 1442 1446 1449 1453 1457 1462 1468 1473 1479
1486 1483 1485 1486 1477 1470 1489 1481 1462 1466 1475 1478 1480 1480 1478 1476 1473 1470 1467 1463 1459 1455 1451 1446 1443 1439 1438 1437 1433 1431 1429 1427 1425 1423 1421 1421 1424 1426 1429 1433 1437 1441 1445 1450 1453 1459 1464 1469 1473
1488 1491 1487 1489 1483 1489 1467 1467 1466 1468 1475 1476 1477 1476 1475 1473 1470 1467 1463 1459 1455 1450 1446 1441 1437 1435 1433 1430 1428 1425 1423 1420 1418 1415 1413 1412 1416 1419 1423 1427 1432 1436 1441 1445 1449 1455 1460 1466 1472
1488 1486 1489 1487 1493 1482 1458 1461 1464 1469 1470 1473 1472 1472 1471 1468 1465 1462 1458 1454 1451 1446 1440 1437 1433 1430 1428 1425 1422 1419 1417 1414 1411 1408 1405 1405 1409 1412 1415 1422 1427 1432 1437 1442 1446 1452 1457 1464 1468
1489 1485 1487 1486 1486 1486 1472 1457 1457 1462 1470 1469 1471 1470 1468 1466 1463 1459 1455 1451 1446 1440 1435 1431 1429 1426 1422 1420 1417 1414 1411 1407 1403 1400 1398 1400 1403 1406 1411 1417 1423 1427 1432 1437 1443 1448 1454 1459 1464
1478 1477 1478 1484 1485 1487 1489 1470 1460 1465 1466 1467 1468 1469 1466 1464 1461 1457 1453 1448 1442 1436 1431 1428 1424 1421 1417 1413 1410 1408 1405 1401 1396 1393 1393 1395 1398 1399 1407 1413 1419 1423 1428 1435 1441 1446 1453 1455 1461